Stations météo

réclame
Mon MeteoGroup
Harstena, Suède (2563): Température de l'air & dewpoint: 11.12.2017 01:00:00 - 17.12.2017 01:00:00 (CET)Harstena, Suède (2563): Vitesse du vent & gusts: 11.12.2017 01:00:00 - 17.12.2017 01:00:00 (CET)Harstena, Suède (2563): Direction du vent: 11.12.2017 01:00:00 - 17.12.2017 01:00:00 (CET)Harstena, Suède (2563): reduced air pressure: 11.12.2017 01:00:00 - 17.12.2017 01:00:00 (CET)Harstena, Suède (2563): visibility: 11.12.2017 01:00:00 - 17.12.2017 01:00:00 (CET)Harstena, Suède (2563): Quantités de précipitations: 11.12.2017 01:00:00 - 17.12.2017 01:00:00 (CET)
Date & Time tt [°C] td [°C] ff [km/h] ff [knt] fx [km/h] fx [knt] dd ppp [hPa] vv [km] rr [mm]
17.12.2017 01:00:00 1,5 0,3 19 10 42 23 N 1007,1 50 0,0
17.12.2017 00:00:00 1,5 0,6 19 10 42 23 N 1006,2 15 0,1
16.12.2017 23:00:00 1,5 0,8 21 12 35 19 N 1005,4 11 0,2
16.12.2017 22:00:00 1,8 1,1 19 10 33 18 N 1004,6 22 0,1
16.12.2017 21:00:00 0,5 -0,1 10 5 14 8 NW 1004,0 2,4 0,1
16.12.2017 20:00:00 0,9 0,0 7 4 13 7 NW 1003,4 7 0,0
16.12.2017 19:00:00 1,0 -0,6 7 4 13 7 WNW 1002,8 48 0,0
16.12.2017 18:00:00 1,0 -0,9 6 4 13 7 WNW 1002,1 50 0,0
16.12.2017 17:00:00 1,1 -2,1 6 3 10 5 W 1001,3 50 0,0
16.12.2017 16:00:00 1,1 -2,8 5 3 12 6 W 1000,6 50 0,0
16.12.2017 15:00:00 1,2 -3,5 5 3 15 8 W 999,9 50 0,0
16.12.2017 14:00:00 1,4 -3,5 6 3 15 8 W 999,4 50 0,0
16.12.2017 13:00:00 1,5 -3,4 5 3 13 7 WNW 999,0 50 0,0
16.12.2017 12:00:00 1,7 -3,0 4 2 13 7 WNW 998,5 50 0,0
16.12.2017 11:00:00 1,7 -2,6 5 3 16 9 W 998,0 50 0,0
16.12.2017 10:00:00 1,4 -2,5 6 3 16 9 W 997,6 50 0,0
16.12.2017 09:00:00 1,1 -2,3 8 4 17 9 WSW 996,9 50 0,0
16.12.2017 08:00:00 1,0 -2,2 9 5 20 11 WSW 996,6 50 0,0
16.12.2017 07:00:00 1,0 -2,2 11 6 21 11 WSW 995,9 50 0,0
16.12.2017 06:00:00 1,1 -2,0 13 7 22 12 SW 995,8 50 0,0
16.12.2017 05:00:00 1,3 -1,8 10 5 22 12 WSW 995,4 50 0,0
16.12.2017 04:00:00 1,3 -1,3 9 5 21 12 WSW 994,8 50 0,0
16.12.2017 03:00:00 1,3 -0,8 10 5 23 12 WSW 994,2 50 0,0
16.12.2017 02:00:00 1,4 -0,8 11 6 24 13 W 993,8 50 0,0
16.12.2017 01:00:00 1,5 -0,9 13 7 30 16 W 993,6 50 0,0
16.12.2017 00:00:00 1,5 -0,4 14 8 30 16 WSW 993,3 50 0,0
15.12.2017 23:00:00 1,6 -0,2 15 8 27 15 WSW 992,7 50 0,0
15.12.2017 22:00:00 1,7 -0,2 13 7 29 15 W 992,2 50 0,0
15.12.2017 21:00:00 1,7 0,1 13 7 30 16 W 991,3 50 0,0
15.12.2017 20:00:00 1,7 -0,1 17 9 31 17 W 990,7 50 0,0
15.12.2017 19:00:00 1,9 0,1 16 8 35 19 W 990,1 50 0,0
15.12.2017 18:00:00 2,0 0,4 16 8 35 19 W 989,4 50 0,0
15.12.2017 17:00:00 1,9 0,4 14 7 30 16 W 988,8 50 0,0
15.12.2017 16:00:00 2,0 0,5 12 7 33 18 W 988,1 50 0,0
15.12.2017 15:00:00 1,9 0,4 18 10 33 18 W 987,2 50 0,0
15.12.2017 14:00:00 1,9 0,6 14 8 32 17 W 986,2 50 0,0
15.12.2017 13:00:00 1,8 0,8 16 8 32 17 W 985,6 49 0,0
15.12.2017 12:00:00 1,7 0,8 16 9 31 17 W 985,0 46 0,0
15.12.2017 11:00:00 1,6 0,9 15 8 29 16 W 984,4 16 0,0
15.12.2017 10:00:00 1,5 0,6 13 7 29 16 W 983,9 36 0,0
15.12.2017 09:00:00 1,3 0,7 12 6 27 14 W 983,0 26 0,0
15.12.2017 08:00:00 1,2 0,6 13 7 24 13 WSW 982,4 22 0,0
15.12.2017 07:00:00 1,2 0,8 12 7 22 12 WSW 981,7 21 0,0
15.12.2017 06:00:00 1,1 0,8 11 6 20 11 WSW 981,0 14 0,1
15.12.2017 05:00:00 0,6 0,3 10 5 22 12 WSW 980,7 6 0,6
15.12.2017 04:00:00 0,8 0,5 14 8 22 12 WSW 980,2 8 0,2
15.12.2017 03:00:00 0,6 0,3 11 6 21 12 SW 979,9 6 0,8
15.12.2017 02:00:00 0,3 0,0 12 6 18 10 SW 979,6 1,5 1,3
15.12.2017 01:00:00 0,7 0,3 8 5 19 10 SW 979,2 3,7 1,0
15.12.2017 00:00:00 1,4 1,0 11 6 22 12 WSW 978,8 6 1,4
14.12.2017 23:00:00 2,2 1,6 9 5 22 12 W 978,1 13 0,1
14.12.2017 22:00:00 2,7 2,1 11 6 20 11 W 977,5 36 0,0
14.12.2017 21:00:00 3,2 2,5 10 5 22 12 NW 977,3 8 0,1
14.12.2017 20:00:00 3,5 2,8 6 3 29 16 NNE 977,4 33 0,0
14.12.2017 19:00:00 3,4 2,4 16 9 36 20 E 977,9 17 0,1
14.12.2017 18:00:00 3,2 2,0 24 13 39 21 E 978,5 18 0,1
14.12.2017 17:00:00 3,1 1,6 27 14 39 21 ESE 979,2 42 0,1
14.12.2017 16:00:00 3,0 2,6 23 12 45 24 ESE 979,8 4,6 0,3
14.12.2017 15:00:00 3,3 2,6 26 14 45 24 SE 980,3 7 0,1
14.12.2017 14:00:00 3,3 2,9 18 10 31 17 SSE 981,0 6 0,2
14.12.2017 13:00:00 3,2 2,6 18 10 38 20 SSE 981,5 8 0,1
14.12.2017 12:00:00 3,1 2,5 21 12 42 23 SSE 982,4 4,2 0,1
14.12.2017 11:00:00 3,1 2,5 23 12 48 26 SSE 983,0 7 0,1
14.12.2017 10:00:00 2,7 2,1 26 14 49 26 SSE 983,6 9 0,4
14.12.2017 09:00:00 2,9 2,3 29 16 53 28 SSE 983,9 14 0,1
14.12.2017 08:00:00 2,7 2,1 27 15 53 28 SSE 984,3 8 0,4
14.12.2017 07:00:00 2,8 2,2 29 15 54 29 S 984,7 11 0,3
14.12.2017 06:00:00 2,7 2,1 32 17 54 29 SSE 985,3 5 0,6
14.12.2017 05:00:00 2,8 1,9 27 15 59 32 S 986,1 9 0,5
14.12.2017 04:00:00 2,9 2,0 31 17 63 34 S 986,8 8 0,7
14.12.2017 03:00:00 3,9 1,3 34 18 64 35 S 987,6 19 0,0
14.12.2017 02:00:00 4,1 1,3 33 18 64 35 S 988,5 36 0,0
14.12.2017 01:00:00 4,1 0,8 35 19 60 33 S 989,4 39 0,0
14.12.2017 00:00:00 3,9 0,9 29 16 62 33 S 990,5 38 0,0
13.12.2017 23:00:00 3,5 -0,2 40 22 68 37 S 991,5 43 0,0
13.12.2017 22:00:00 3,6 0,3 41 22 68 37 S 992,3 33 0,0
13.12.2017 21:00:00 3,6 0,5 44 24 67 36 S 993,2 29 0,0
13.12.2017 20:00:00 3,3 0,5 41 22 67 36 S 993,9 41 0,0
13.12.2017 19:00:00 3,2 0,3 36 20 60 32 S 994,5 42 0,0
13.12.2017 18:00:00 2,7 -0,3 38 21 57 31 S 995,2 43 0,0
13.12.2017 17:00:00 2,4 -0,3 32 17 53 29 S 996,3 45 0,0
13.12.2017 16:00:00 1,8 -0,9 28 15 49 27 SSW 997,1 48 0,0
13.12.2017 15:00:00 2,0 -1,4 33 18 - - SSW 997,6 50 -
13.12.2017 14:00:00 - - - - - - - - - -
13.12.2017 13:00:00 2,5 0,3 29 16 46 25 SSW 998,1 49 0,0
13.12.2017 12:00:00 2,7 0,4 28 15 45 24 SW 998,4 50 0,0
13.12.2017 11:00:00 2,2 0,6 26 14 45 24 SW 998,7 50 0,0
13.12.2017 10:00:00 1,8 0,6 25 14 41 22 SSW 998,7 50 0,0
13.12.2017 09:00:00 1,3 0,6 26 14 41 22 SSW 998,7 42 0,0
13.12.2017 08:00:00 0,2 -0,2 18 10 35 19 SW 998,7 3,1 0,2
13.12.2017 07:00:00 -0,1 -0,7 19 10 35 19 SSW 999,1 3,7 0,2
13.12.2017 06:00:00 -0,5 -2,2 18 10 29 15 SW 999,4 50 0,0
13.12.2017 05:00:00 -2,0 -4,0 14 8 27 15 SW 999,5 50 0,0
13.12.2017 04:00:00 -1,9 -4,1 11 6 38 20 SW 999,7 50 0,0
13.12.2017 03:00:00 -1,6 -3,8 15 8 39 21 WSW 999,7 50 0,0
13.12.2017 02:00:00 -1,0 -3,7 16 9 39 21 WSW 999,2 50 0,0
13.12.2017 01:00:00 -0,8 -3,7 21 11 47 26 W 998,4 50 0,0
13.12.2017 00:00:00 -1,4 -3,6 18 10 47 26 W 997,9 50 0,0
12.12.2017 23:00:00 -1,3 -3,7 22 12 48 26 W 996,9 50 0,0
12.12.2017 22:00:00 -1,3 -3,3 32 17 50 27 WNW 995,8 50 0,0
12.12.2017 21:00:00 -0,5 -3,0 27 15 51 27 NW 994,9 50 0,0
12.12.2017 20:00:00 0,2 -2,2 28 15 51 27 NW 993,8 50 0,0
12.12.2017 19:00:00 0,3 -1,5 29 16 49 26 NW 992,3 16 0,0
12.12.2017 18:00:00 0,6 -0,9 29 16 46 25 NW 990,9 10 0,0
12.12.2017 17:00:00 0,8 -0,4 24 13 41 22 NW 989,3 35 0,1
12.12.2017 16:00:00 0,9 0,0 22 12 41 22 NW 988,1 40 0,0
12.12.2017 15:00:00 0,8 0,2 22 12 40 21 NW 986,7 15 0,0
12.12.2017 14:00:00 1,0 0,3 23 13 36 19 NW 985,9 50 0,0
12.12.2017 13:00:00 0,9 0,5 19 11 31 17 NW 985,2 50 0,0
12.12.2017 12:00:00 0,7 0,4 18 10 30 16 NNW 985,1 28 0,1
12.12.2017 11:00:00 0,4 0,1 17 9 31 17 NW 985,5 2,8 0,4
12.12.2017 10:00:00 0,7 0,4 19 10 36 19 NNW 985,3 4,7 0,6
12.12.2017 09:00:00 1,5 1,1 21 11 36 19 NNW 985,2 9 0,4
12.12.2017 08:00:00 1,8 1,4 17 9 33 18 N 985,4 6 0,7
12.12.2017 07:00:00 2,6 2,3 17 9 34 18 N 985,8 9 0,9
12.12.2017 06:00:00 2,6 2,3 16 9 42 23 NNE 986,5 8 0,6
12.12.2017 05:00:00 2,1 1,7 21 11 42 23 NNE 987,4 8 0,7
12.12.2017 04:00:00 1,5 1,1 23 13 42 23 NNE 987,9 6 2,1
12.12.2017 03:00:00 1,8 1,1 22 12 40 22 N 988,4 5 1,6
12.12.2017 02:00:00 2,7 2,0 17 9 39 21 NE 989,4 8 0,9
12.12.2017 01:00:00 2,5 1,8 22 12 39 21 ENE 990,1 8 1,1
12.12.2017 00:00:00 2,5 1,6 24 13 36 19 E 991,0 5 1,3
11.12.2017 23:00:00 2,5 1,3 24 13 36 19 E 991,6 7 0,6
11.12.2017 22:00:00 2,6 1,1 23 12 39 21 E 992,1 7 0,1
11.12.2017 21:00:00 3,4 0,1 22 12 39 21 E 993,2 35 0,0
11.12.2017 20:00:00 3,2 -0,3 24 13 38 20 E 992,7 33 0,0
11.12.2017 19:00:00 3,0 -1,2 26 14 39 21 E 992,8 42 0,0
11.12.2017 18:00:00 3,1 -0,7 24 13 41 22 E 993,5 43 0,0
11.12.2017 17:00:00 3,0 -0,8 31 17 41 22 ESE 993,3 47 0,0
11.12.2017 16:00:00 3,2 -1,2 29 16 39 21 ESE 993,0 50 0,0
11.12.2017 15:00:00 3,1 -0,9 25 14 37 20 ESE 993,3 40 0,0
11.12.2017 14:00:00 3,1 -2,0 28 15 41 22 ESE 992,7 45 0,0
11.12.2017 13:00:00 3,1 -1,1 27 15 41 22 ESE 992,5 49 0,0
11.12.2017 12:00:00 3,2 -0,6 27 15 37 20 ESE 991,6 43 0,0
11.12.2017 11:00:00 3,1 -1,5 28 15 42 23 ESE 992,3 42 0,0
11.12.2017 10:00:00 3,0 -0,8 25 13 42 23 ESE 992,2 39 0,0
11.12.2017 09:00:00 2,4 0,1 27 15 43 23 ESE 991,8 30 0,0
11.12.2017 08:00:00 2,1 -0,3 30 16 43 23 ESE 991,5 50 0,3
11.12.2017 07:00:00 2,4 -1,9 24 13 42 23 ESE 991,0 50 0,0
11.12.2017 06:00:00 1,5 -0,6 17 9 42 23 SE 990,4 15 0,1
11.12.2017 05:00:00 2,5 -1,1 22 12 34 18 ESE 990,3 50 0,0
11.12.2017 04:00:00 0,7 -0,8 7 4 17 9 N 990,3 50 0,0
11.12.2017 03:00:00 0,6 -1,0 4 2 28 15 WNW 990,2 49 0,0
11.12.2017 02:00:00 0,8 -1,1 11 6 36 19 SSE 990,1 35 0,0
11.12.2017 01:00:00 1,2 -0,1 19 11 36 19 S 990,1 50 0,1

tt = Température de l'air
td = dewpoint
ff = Vitesse du vent
fx = gusts
dd = Direction du vent
ppp = reduced air pressure
vv = visibility
rr = Quantités de précipitations

stations d'obs. à proximité